Regional Weather Roundup
Issued by NWS

Home | Current Version | Previous Version | Graphics & Text | Print | Product List | Glossary On
Versions: 1 2 3 4 5 6 7 8 9 10 11 12 13 14 15 16 17 18 19 20 21 22 23 24 25 26 27 28 29 30 31 32 33 34 35 36 37 38 39 40 41 42 43 44 45 46 47 48 49 50
017
ASUS45 KSLC 131710
RWRUT

UTAH REGIONAL WEATHER ROUNDUP
NATIONAL WEATHER SERVICE SALT LAKE CITY UT
1000 AM MST SAT FEB 13 2016

UTZ001>011-023>025-131800-

NORTHERN UTAH

CITY           SKY/WX    TMP DP  RH WIND       PRES   REMARKS
BRIGHAM CITY   CLOUDY    27  25  93 W3        30.35S
HILL AFB       FOG       27  26  96 VRB1      30.32R VSB 3/4
LOGAN          CLOUDY    24  24 100 CALM      30.32S FOG
OGDEN          FOG       30  28  92 W6        30.33R VSB 1/4 WCI  24
PROVO AIRPORT  FOG       23  21  93 CALM      30.33S VSB 1/2
SALT LAKE CITY FOG       30  28  92 CALM      30.34R VSB 1
VERNAL         CLOUDY    26  22  84 N5        30.27S FOG     WCI  20
WENDOVER       CLOUDY    28  25  86 CALM      30.35R
HEBER CITY     PTSUNNY   25  19  80 NW5       30.27R HAZE    WCI  19
WEST JORDAN    CLOUDY    28  28 100 CALM      30.32S

$$

UTZ012>022-026-027-131800-

SOUTHERN/CENTRAL UTAH

CITY           SKY/WX    TMP DP  RH WIND       PRES   REMARKS
BLANDING       SUNNY     42  27  55 SW3       30.37S
BRYCE CANYON   SUNNY     21  12  68 SW3       30.32F
CEDAR CITY     MOSUNNY   37  21  52 CALM      30.25F
DELTA          CLOUDY    19  17  95 CALM      30.32S
HANKSVILLE     CLOUDY    34  32  93 CALM      30.32S
MILFORD        FOG       12  12 100 CALM      30.29F VSB 1/4
MOAB/CYNLANDS  PTSUNNY   34  30  85 NW5       30.28S WCI  30
PRICE          MOSUNNY   36  26  67 CALM      30.27S
ST GEORGE      PTSUNNY   45  27  49 CALM      30.27S
KANAB          SUNNY     48  28  46 N3        30.29F

$$

REGIONAL REPORTS     COLORADO/ARIZONA

CITY           SKY/WX    TMP DP  RH WIND       PRES   REMARKS
CRAIG, CO      CLOUDY    20  16  84 CALM      30.25F
GRAND JUNCTION CLOUDY    32  26  78 CALM      30.28S
RIFLE          CLOUDY    28  19  69 CALM      30.29F
MONTROSE       CLOUDY    40  23  50 VRB5      30.29F
CORTEZ         SUNNY     42  25  50 SE3       30.29F
PAGE, AZ       SUNNY     43  31  62 W5        30.27F
GRAND CANYON   SUNNY     56  24  29 CALM      30.32S
KINGMAN        SUNNY     59  23  25 N5        30.20S
FLAGSTAFF      SUNNY     52  21  29 SW5       30.32F

$$

REGIONAL REPORTS    NEVADA/IDAHO/WYOMING

CITY           SKY/WX    TMP DP  RH WIND       PRES   REMARKS
LAS VEGAS, NV  MOSUNNY   59  23  25 SE5       30.16S
ELY            PTSUNNY   28  19  69 S14       30.32S WCI  17
ELKO           MOSUNNY   24  17  74 CALM      30.34F
POCATELLO, ID  PTSUNNY   40  29  64 SW25      30.22R WCI  29
BURLEY         CLOUDY    36  32  85 SW12      30.27R WCI  28
EVANSTON, WY   CLOUDY    33  15  47 SW9       30.25R WCI  25
ROCK SPRINGS   CLOUDY    38  18  44 W20       30.19R WCI  28
KEMMERER       CLOUDY    32  18  55 W7        30.21R WCI  26

$$




USA.gov is the U.S. government's official web portal to all federal, state and local government web resources and services.